Orbital Elements at Epoch 2459200.5 (2020-Dec-17.0) TDB
Reference: JPL 16 (heliocentric ecliptic J2000)
Element | Value | Uncertainty (1-sigma) | Units |
e | .1743546781848166 | 6.3177e-08 | |
a | 2.298458502056089 | 1.375e-08 | au |
q | 1.897711509608944 | 1.471e-07 | au |
i | 4.439672262510648 | 6.6507e-06 | deg |
node | 352.3346507236499 | 5.1109e-05 | deg |
peri | 17.85087058066401 | 5.2907e-05 | deg |
M | 268.0285406891925 | 1.8154e-05 | deg |
tp | 2459525.665158171807 (2021-Nov-07.16515817) | 6.6313e-05 | TDB |
period | 1272.780249645285 3.48 | 1.1421e-05 3.127e-08 | d yr |
n | .2828453694974679 | 2.538e-09 | deg/d |
Q | 2.699205494503234 | 1.6147e-08 | au |
|
| | Orbit Determination Parameters
Additional Information
|